Showing default

TMSAT, 25396

Orbit data source: Space-Track

TMSAT, 25396 is a payload satellite owned by TMSAT (TH) in SSO that was launched on Fri, 10 Jul 1998 UTC via a ZENIT-2 launch vehicle from the Tyuratam Missile And Space Complex (TTMTR). Payload-class satellites include a variety of spacecraft equipped with specific instruments for various scientific and technological missions. These include communications satellites like Starlink; space stations such as the ISS; scientific satellites like the Hubble; Earth observation satellites from companies like Planet Labs, Umbra, and HawkEye 360; GPS; miniature CubeSats for education and research; and military/defense satellites.

Loading next visibility...
Identifier
25396, 1998-043C
Orbit
SSO
Country
Flag of THTH / THAI
Related business
Manufacturer
SSTL
Mission
Non-operational Defense Com/Imaging
Bus & Motor
UOSAT, Unknown motor
Mass
50 kg wet, 50 kg dry
Launch date (UTC)
1998-07-10 (28 years ago)
Launch vehicle
ZENIT-2
Launch site
Tyuratam Missile And Space Complex (TTMTR)
Object type
Payload
Rocket body
Debris
Shape & HBR
Box + 1 Ant, 3.5 m
Radar Cross Section
0.620 m², Medium (>0.1 m² and < 1m²)

Expand to show TLE details & history
Last TLE update: 11 hours ago

TLE from 11 hours ago
0 TMSAT
1 25396U 98043C   26093.85976253  .00000266  00000-0  13184-3 0  9998
2 25396  98.9842  83.0979 0003151  36.3212 323.8180 14.25736829441405
Epoch: 2026-04-03T20:38Z
TLE epoch observation values (Epoch: 2026-04-03T20:38:03.482Z)
Latitude
-0.00005°
Longitude
-58.60444°
Altitude
807.102 km
Speed
7.451 km/s
True Right ascension
05h 32m 23s
True Declination
0° 00' 00"
Sunlit
Object was in daylight at epoch
Visualization orbit readout
Latitude
Unknown
Longitude
Unknown
Altitude
Unknown
Speed
Unknown
Apparent Right ascension
Unknown
Apparent Declination
Unknown
Sunlit
N/A
Visualization observer readout
Local Sidereal Time
13:02:21
Azimuth
Unknown
Elevation
Unknown
Doppler factor
Unknown
Orbital elements
Apogee altitude
805.444 km
Perigee altitude
800.918 km
Semi-major axis
7,181.318 km
Eccentricity
0.00032
Inclination
98.9842°
RAAN
83.0979°
Arg. of periapsis
36.3212°
True anomaly
323.79668°
Mean anomaly
323.818°
Eccentric anomaly
323.80734°
Mean motion
3.56646 °/min
Orbital period
100.94 mins
BSTAR
0.00013184
Loading maneuver chart data...
Computing Atmospheric mass density...
Loading historical data...
Loading historical data...
Loading historical data...
Loading historical data...
Loading historical data...
Loading historical data...
Loading historical data...

Documentation

Showing up to 5 results
|